Dewpoint
28 28 25 24 24 25 25 24 23 24 21 21 21 26 51 52 52 53 54 59 61 61 60 59 59 60 61 62 63 64 65 64 63 63 63 63 58 59 59 58 57 57 57 57 61 62 63 64 65 65 64 64 65 65 66 67 68 69 70 70 70 70 71 71 71 70 69 68 69 69 69 69 69 69 70 71 72 72 72 71 71 72 73 73 73 73
27 27 25 25 24 24 24 24 23 22 21 20 21 19 18 42 36 50 53 59 60 59 58 59 59 59 60 62 62 64 64 63 62 63 63 62 58 59 58 58 57 57 56 57 60 61 62 63 64 64 63 65 63 64 66 67 68 69 70 70 70 70 71 71 70 70 69 68 68 68 69 68 68 70 71 71 72 73 73 72 72 73 73 73 73 74
27 24 24 25 25 25 25 23 19 19 20 19 17 18 16 15 27 55 56 59 60 58 56 58 58 59 60 62 62 63 63 63 63 63 64 64 58 58 58 57 57 56 54 56 59 60 61 62 63 63 62 63 63 64 65 67 68 69 69 70 70 70 70 70 70 69 68 69 70 69 69 68 69 70 71 71 73 74 73 73 73 73 73 73 74 75
28 25 25 25 25 24 23 23 21 17 15 14 14 16 14 25 51 51 58 59 59 57 57 58 59 58 61 62 63 65 65 64 66 64 65 67 60 58 58 57 56 54 54 56 58 59 61 61 61 62 61 62 63 64 65 66 67 68 70 69 70 70 70 70 70 70 69 70 70 70 70 69 69 69 72 73 74 74 74 74 74 74 74 74 75 76
25 25 26 26 24 23 22 22 22 18 16 14 13 12 12 32 50 55 56 60 58 57 56 58 57 56 60 60 61 63 63 64 65 65 64 66 67 68 68 64 58 54 54 55 57 58 60 60 60 61 61 62 63 63 64 66 67 68 69 69 70 70 70 70 71 70 70 72 71 73 72 72 72 73 73 73 73 74 75 75 74 74 75 75 76 76
24 25 26 26 25 22 22 20 19 16 14 10 9 10 9 36 50 56 56 55 56 54 57 55 48 50 58 58 61 62 62 62 64 63 62 64 65 67 66 65 66 58 54 55 56 58 59 59 60 60 61 62 63 63 64 66 67 68 69 70 70 70 70 70 71 70 71 72 70 70 70 69 69 70 71 71 72 73 74 74 75 75 76 76 76 76
24 25 24 24 24 23 20 19 19 15 13 12 11 9 10 37 53 56 55 53 50 50 54 54 46 45 55 58 59 61 61 61 63 63 63 63 64 65 65 65 65 61 59 55 56 57 58 59 59 59 61 62 62 63 64 66 67 68 69 70 70 70 70 71 71 71 72 71 70 70 69 69 69 70 71 72 73 73 74 74 74 75 75 76 76 75
24 24 22 23 24 22 21 19 19 14 12 11 12 10 9 37 51 55 54 52 49 53 55 54 49 47 48 54 59 60 60 61 61 62 63 63 64 63 64 64 65 65 61 59 55 57 58 58 59 59 61 62 62 63 64 66 67 68 69 70 70 70 71 71 71 71 71 70 70 70 70 70 69 69 69 71 72 73 74 74 74 74 75 75 75 75
23 22 20 20 21 20 20 20 21 14 13 13 15 10 10 37 50 53 53 51 47 50 49 53 50 45 46 50 59 60 59 59 60 61 63 63 63 63 64 64 64 65 66 64 59 55 57 58 58 59 61 62 62 62 64 65 67 68 69 70 70 70 70 70 72 71 71 72 71 70 70 70 70 70 70 72 73 73 74 73 73 74 74 74 74 75
27 22 21 20 19 18 19 19 19 15 14 15 15 19 16 17 44 51 51 50 47 46 45 50 50 43 44 52 58 59 58 59 59 61 63 63 63 62 63 65 64 65 66 65 64 56 56 57 58 59 61 62 62 62 64 65 67 68 69 70 70 70 70 70 71 72 71 71 72 70 70 70 70 71 71 72 72 72 73 73 73 73 73 73 74 74
26 35 40 21 18 19 19 19 18 16 16 18 15 13 15 26 38 49 48 45 44 42 43 48 50 45 40 50 56 56 57 58 59 61 63 63 63 63 64 64 65 65 66 66 65 64 56 57 59 59 61 61 62 62 64 65 66 68 69 69 69 70 70 70 70 72 71 71 71 70 70 70 70 71 71 71 71 71 72 72 72 72 73 73 73 74
22 23 24 28 26 21 19 18 18 17 16 15 16 20 23 31 38 43 42 44 41 39 42 46 49 47 41 43 56 58 58 59 59 60 61 62 63 63 63 63 64 64 66 67 66 66 62 57 59 59 60 61 61 61 63 65 66 68 69 69 69 70 70 70 70 72 72 72 71 71 71 70 70 71 71 70 70 71 71 71 72 72 72 72 73 73
18 19 21 22 41 21 20 17 17 19 15 15 23 25 20 27 34 30 34 40 39 39 40 43 48 45 44 44 50 54 58 59 60 60 61 62 63 63 62 61 62 63 66 66 66 65 64 58 58 59 60 61 62 62 63 65 66 68 68 69 69 69 70 70 70 71 72 72 71 71 71 71 71 71 71 71 70 71 71 71 72 72 72 71 72 73
18 20 21 21 22 30 19 16 19 17 17 16 16 22 22 28 28 24 31 33 36 38 35 39 47 44 46 49 54 55 56 58 59 60 62 63 63 63 63 62 61 62 65 66 66 65 65 60 58 59 60 61 61 61 63 65 66 67 68 68 68 69 70 70 70 71 72 72 72 72 71 71 72 71 71 71 70 71 71 71 72 72 72 72 72 73
18 18 21 23 18 24 21 18 19 17 18 16 19 20 22 30 27 24 27 24 32 35 33 45 43 42 42 45 54 55 56 58 59 60 62 63 63 63 63 63 63 62 63 66 66 65 65 65 61 59 60 61 61 61 62 65 66 67 68 68 68 69 69 70 70 71 71 72 72 72 72 71 72 71 71 71 71 71 71 71 72 72 72 72 73 73
19 19 22 24 23 25 23 22 21 22 21 22 24 25 23 25 34 29 32 26 29 35 41 43 43 48 48 53 55 57 57 59 60 60 62 62 63 63 64 64 64 63 63 65 66 65 65 65 66 60 60 61 61 62 62 64 66 66 67 68 68 68 69 69 70 71 71 71 72 72 72 71 72 73 71 72 72 72 71 71 72 72 72 72 73 73
29 22 25 24 25 23 23 27 26 20 17 22 21 20 22 25 30 35 39 38 33 39 40 46 47 49 52 52 55 57 58 59 60 61 62 62 63 63 63 63 64 64 64 65 66 65 65 65 66 65 60 61 61 61 62 65 66 66 66 68 68 68 69 69 69 70 71 71 72 72 72 72 72 72 71 71 72 72 71 71 71 72 72 73 73 73
20 21 22 25 23 24 25 25 25 25 24 23 19 20 28 32 32 29 24 31 28 27 37 46 46 46 44 44 54 55 56 57 59 60 61 62 62 62 63 63 63 64 64 65 66 66 65 65 67 68 67 63 64 66 65 66 66 66 66 67 68 68 69 69 69 70 71 71 71 71 72 72 72 72 71 71 72 72 72 72 72 72 72 73 73 73
23 21 22 25 25 24 24 24 21 26 27 22 20 26 18 24 20 29 28 24 25 36 41 45 46 46 46 46 53 54 56 57 59 61 61 62 62 63 63 64 64 64 65 66 67 67 68 68 68 68 68 69 69 70 69 67 67 67 67 67 67 67 69 69 68 69 71 71 71 71 71 71 72 72 71 71 72 72 71 72 72 72 72 72 73 74
30 21 22 24 24 23 22 22 21 22 23 26 25 22 30 27 29 26 25 28 27 35 42 45 47 44 48 50 55 55 57 58 59 60 61 62 63 63 64 65 65 66 67 66 66 67 67 68 69 69 68 68 69 70 71 71 68 68 67 68 68 68 69 70 69 69 70 71 71 71 71 71 72 72 72 71 71 71 71 71 72 72 72 72 72 73
26 29 21 23 24 23 21 23 21 23 22 22 21 23 23 29 29 24 30 25 36 40 42 44 43 45 48 57 56 57 58 59 60 60 61 61 62 63 63 64 64 65 66 66 66 66 67 68 69 70 69 69 69 70 71 72 71 70 70 70 70 70 69 70 70 69 70 71 71 71 71 71 71 72 72 71 71 71 71 71 72 72 72 72 72 72
28 28 25 26 22 22 21 24 25 24 22 21 21 22 22 21 21 20 22 28 41 42 40 42 41 45 53 57 57 58 59 59 60 60 61 61 61 61 61 62 63 63 66 68 67 68 69 68 69 69 70 69 69 69 70 71 71 71 71 71 70 70 70 70 70 70 71 71 71 71 71 71 71 71 72 71 71 71 71 71 71 71 71 71 71 72
29 33 32 23 24 21 22 23 28 28 25 22 19 15 23 25 25 24 20 22 41 43 45 42 41 43 55 57 58 59 59 58 58 59 59 60 61 61 62 63 63 64 65 66 67 68 68 68 68 68 69 70 69 69 70 71 71 71 71 72 72 71 71 71 71 71 71 71 71 70 71 71 71 71 71 71 70 70 70 70 70 71 71 70 70 71
43 29 27 28 32 34 32 31 30 29 30 24 22 21 16 14 20 21 24 28 41 43 41 40 41 47 55 59 58 59 59 59 59 59 59 60 61 61 61 62 63 63 65 66 66 67 68 68 69 68 69 69 69 69 69 70 71 71 72 72 71 71 72 73 73 73 72 72 72 71 71 70 70 70 70 70 70 70 70 69 69 70 70 70 70 69
26 29 29 29 29 29 29 30 27 29 29 29 25 24 19 18 22 28 38 41 41 42 42 39 40 47 55 58 58 59 58 58 58 59 59 59 60 60 61 61 62 63 64 65 65 66 67 67 68 67 68 68 69 69 69 69 70 71 71 72 72 71 72 73 73 73 72 72 72 72 71 70 70 70 70 70 70 69 69 69 69 69 69 69 69 69
26 31 35 32 27 26 26 24 26 28 27 29 27 17 19 16 32 33 31 38 34 40 42 41 45 51 56 57 57 58 58 58 57 57 57 58 59 58 60 60 59 60 61 62 64 65 65 66 66 67 68 68 69 69 69 69 70 70 71 71 72 72 72 72 73 72 72 72 72 71 71 71 70 70 70 69 69 69 69 69 69 68 68 68 67 68
32 38 39 37 37 30 31 34 37 41 31 22 18 18 20 19 36 36 38 36 34 40 42 44 49 50 52 55 56 57 57 56 57 57 56 57 58 58 58 58 58 59 59 60 62 64 65 66 65 66 67 68 69 69 70 70 70 70 70 70 71 72 72 71 73 72 72 72 71 70 70 71 71 71 70 70 70 69 69 69 69 68 68 68 68 67
36 28 31 41 40 40 31 35 31 37 27 24 18 18 20 24 28 36 29 29 42 42 38 47 51 50 51 54 56 56 56 56 56 56 57 57 56 57 58 58 58 57 58 59 60 61 63 64 66 66 67 68 69 70 70 69 69 70 70 70 71 71 72 72 72 72 71 71 71 70 70 71 71 71 71 71 71 70 69 68 67 67 68 68 67 67
26 25 26 34 32 37 26 26 23 18 19 22 19 21 22 36 35 36 39 43 43 38 38 47 50 50 52 54 55 56 56 55 55 56 57 58 57 55 55 55 56 56 57 58 58 59 60 61 63 65 66 67 67 67 67 68 68 69 70 70 71 72 71 72 71 71 71 71 70 70 71 71 71 71 70 71 70 70 70 69 68 68 67 67 67 67
25 24 30 27 27 27 29 26 22 21 21 21 22 24 28 42 43 44 45 47 46 42 47 50 49 51 53 54 55 55 55 54 54 55 56 55 57 56 54 54 55 56 57 58 59 60 60 61 62 63 64 65 66 67 67 68 68 69 69 69 71 71 72 72 71 71 71 71 71 71 71 71 72 71 70 70 69 69 70 70 70 69 68 67 67 66
19 23 36 28 33 25 29 29 22 23 23 24 27 25 26 41 47 47 48 49 50 49 50 50 50 50 53 54 54 54 54 54 54 54 54 54 53 54 53 53 54 54 55 57 59 60 61 61 60 61 62 64 65 66 67 67 67 68 69 68 69 69 70 71 71 71 71 70 71 71 71 71 71 71 71 70 70 70 69 70 70 70 69 68 67 67
27 25 32 32 26 27 27 28 25 28 23 26 26 24 23 24 44 47 47 48 48 47 49 49 49 49 51 54 53 53 52 52 51 51 51 52 52 52 51 52 52 53 54 55 57 59 61 60 59 60 60 62 63 64 65 65 66 67 67 68 68 69 69 69 70 70 70 71 72 71 71 72 71 71 71 71 71 70 70 70 70 69 69 69 68 68
32 28 24 27 27 27 28 30 32 27 23 25 26 23 26 30 41 48 49 50 49 49 48 47 48 50 52 53 51 51 51 50 50 50 50 50 50 49 50 50 50 51 52 54 55 57 57 57 57 58 59 60 62 63 64 64 64 66 67 67 68 69 68 68 68 68 68 69 70 70 71 72 72 72 71 71 71 71 71 70 70 70 70 69 69 68
38 29 24 31 23 23 29 35 39 27 22 25 25 28 35 41 45 46 46 47 47 48 47 49 50 51 51 51 50 50 50 50 50 50 50 49 48 47 47 47 47 47 48 50 52 53 54 56 55 56 56 58 60 62 63 64 64 64 65 66 67 67 67 67 67 68 68 68 69 69 70 70 71 71 72 72 72 72 71 71 71 71 71 71 71 70
34 34 30 30 22 22 30 36 33 25 26 34 34 30 44 46 46 46 46 48 49 50 49 49 49 50 50 50 50 50 50 49 49 49 49 48 48 46 45 44 44 45 45 46 48 50 52 54 54 54 55 56 58 59 61 62 62 62 63 64 64 65 65 66 67 67 68 68 68 69 69 69 69 70 71 71 72 72 71 70 70 71 71 71 71 71
30 32 31 31 27 24 24 29 22 22 34 34 36 34 37 34 36 46 45 46 48 50 50 49 49 49 48 48 49 49 49 49 49 50 49 48 48 46 43 42 43 43 43 44 46 47 49 52 54 55 55 57 55 55 56 58 59 59 58 59 59 60 62 64 64 65 67 67 68 68 68 69 69 69 69 68 69 69 68 69 70 70 70 72 71 72
36 36 31 26 31 17 20 26 25 35 33 32 32 30 35 33 28 42 42 43 47 51 51 50 48 46 47 47 47 47 46 46 45 45 47 47 46 46 44 43 42 42 43 44 45 46 48 49 50 51 52 53 54 56 56 57 58 58 57 57 56 56 57 57 58 61 63 65 66 67 66 67 67 68 69 67 67 68 69 69 71 71 71 71 71 72
34 27 31 28 30 28 22 21 25 24 25 29 39 41 37 30 33 44 45 44 45 51 52 50 50 51 47 44 44 44 45 43 43 43 43 43 42 42 43 44 43 43 44 45 46 47 48 48 49 51 50 50 51 53 56 57 57 56 56 56 55 55 55 55 56 57 60 61 63 66 65 65 65 65 67 69 66 66 67 68 70 71 73 71 70 70
35 35 33 29 29 31 27 20 19 21 26 36 36 38 37 33 38 45 44 42 43 51 52 51 50 52 52 43 43 43 43 43 43 41 42 41 41 43 44 45 44 44 45 46 46 47 49 50 51 51 51 50 51 52 54 56 56 54 54 55 55 55 55 55 56 57 58 60 61 60 62 61 62 64 65 65 67 67 66 66 68 70 71 71 71 71
34 34 24 23 29 34 27 22 19 28 27 32 39 39 34 38 36 39 34 37 42 50 53 50 51 51 53 53 52 50 41 42 43 41 42 42 44 45 46 46 46 46 46 46 47 48 49 51 50 49 50 50 51 52 55 55 55 56 54 54 55 55 55 56 56 57 58 58 58 58 59 59 61 62 62 63 64 66 67 68 67 67 69 70 70 70
30 29 26 18 27 30 32 25 26 29 37 42 41 36 38 42 33 31 27 36 46 50 51 51 51 53 55 54 54 51 52 49 49 47 47 51 49 48 48 48 48 48 47 48 50 52 48 48 48 49 49 51 51 52 54 55 54 54 55 54 54 55 56 56 57 57 58 58 57 58 58 58 60 60 60 62 63 63 64 66 66 66 67 68 69 69
29 32 38 25 21 19 25 20 21 28 34 36 39 41 44 32 20 20 30 42 46 49 50 50 51 51 52 53 53 48 47 50 50 48 50 51 52 52 48 47 47 50 51 52 52 50 47 48 48 48 49 50 51 52 52 54 55 54 53 53 54 55 56 55 56 57 57 57 57 57 57 58 59 60 60 60 61 60 61 63 65 67 67 68 68 68
28 24 23 21 25 25 25 25 23 20 33 41 41 34 40 28 26 31 39 43 43 47 49 50 50 51 51 47 43 43 42 43 43 43 45 46 47 47 48 46 46 46 46 48 49 51 48 47 47 48 49 49 50 51 51 52 55 54 52 52 54 55 56 56 56 57 56 56 56 57 56 58 58 59 59 60 61 60 61 63 64 65 66 67 67 67
31 23 24 26 29 24 22 20 20 26 32 42 38 30 34 41 39 43 40 39 42 44 48 49 49 50 46 42 42 42 42 42 44 44 45 46 46 46 46 46 46 47 47 47 47 48 50 47 48 47 48 49 50 50 51 51 54 55 53 51 54 55 56 55 56 56 55 55 54 55 56 57 58 58 57 59 60 61 61 62 64 65 66 67 67 65
33 27 29 27 31 29 28 30 34 38 40 43 44 42 45 47 48 45 42 41 40 41 43 46 45 44 42 42 42 42 42 43 44 44 45 45 45 45 45 45 45 46 47 47 47 50 47 47 47 47 47 48 50 50 51 51 52 53 52 52 55 54 54 55 57 57 53 52 52 54 54 55 56 56 55 56 58 59 60 60 62 62 62 65 65 65
34 37 37 30 28 35 39 38 40 42 43 44 42 45 44 43 43 42 40 40 42 42 42 42 41 41 42 42 42 43 43 43 44 44 45 45 45 45 47 45 46 46 46 46 46 48 47 47 48 48 48 48 50 51 53 51 51 51 51 53 53 52 53 55 56 56 53 52 53 52 54 54 54 53 53 54 55 57 58 58 60 61 61 61 61 62
37 38 34 31 35 24 23 33 38 40 42 42 42 41 42 42 42 43 41 42 42 43 42 42 41 43 45 46 45 43 44 45 44 45 46 45 45 44 44 45 45 45 46 47 49 49 46 46 47 49 50 50 50 51 51 50 50 51 51 52 51 51 52 54 56 55 53 51 52 53 53 54 53 52 52 53 53 54 56 57 58 58 60 59 59 60
34 38 34 37 34 29 32 38 41 43 43 44 44 42 41 41 41 42 43 43 43 44 43 42 41 44 47 46 46 46 48 49 47 45 45 45 44 44 45 45 46 47 47 48 48 48 45 45 47 49 50 50 49 50 50 50 50 50 50 51 51 51 52 54 54 52 51 51 52 54 55 55 56 54 52 52 53 52 53 55 57 57 57 57 57 59
37 41 32 37 34 37 38 39 41 38 41 43 44 45 46 45 43 42 42 41 41 41 42 43 40 41 42 43 45 45 46 46 46 46 44 44 44 45 45 46 46 46 46 45 46 47 46 48 50 50 50 49 49 49 49 49 50 51 51 52 52 51 52 54 54 54 51 52 52 52 56 57 54 53 53 52 52 52 53 55 55 56 56 56 58 59
36 33 37 36 33 32 34 36 41 34 35 41 44 45 46 46 43 43 43 40 40 41 42 42 43 43 42 42 43 43 43 43 44 44 44 44 44 45 45 46 45 44 44 45 47 48 50 51 49 49 49 48 49 49 51 50 51 51 52 53 53 52 53 53 53 52 51 52 52 52 55 55 53 53 54 53 52 52 52 54 54 53 55 54 56 54
37 37 37 33 33 32 37 41 41 38 39 42 43 45 46 47 46 45 46 45 42 41 42 41 41 41 41 42 43 43 43 43 42 43 44 44 45 45 45 44 43 43 44 45 46 47 48 49 51 51 49 48 51 51 51 51 51 51 52 53 53 53 52 52 54 53 52 54 53 55 55 54 53 54 53 53 52 52 53 52 52 49 48 49 52 49